Wind_Speed
29 30 30 30 31 32 32 33 33 33 33 34 33 33 32 32 33 34 34 34 35 35 37 38 39 39 39 39 41 42 43 44 44 45 45 45 45 45 45 46 46 46 46 47
30 30 30 31 31 32 32 33 33 33 33 34 34 33 32 32 33 33 33 33 34 35 36 37 38 38 38 39 40 41 43 44 44 45 46 46 45 45 46 46 46 47 48 48
30 30 31 32 32 32 32 33 33 33 33 33 35 34 32 33 34 34 33 34 34 35 36 36 37 38 38 39 39 41 43 44 44 45 46 46 45 45 46 47 47 47 48 49
32 31 31 32 32 32 33 33 33 34 34 34 34 36 34 34 34 34 33 34 34 34 35 37 37 38 39 39 40 42 43 44 44 45 46 47 46 46 47 47 48 48 49 50
32 32 32 32 32 33 33 33 34 34 35 36 34 36 34 34 34 34 34 34 35 35 36 37 37 39 39 40 41 42 42 44 44 45 46 46 47 47 47 48 48 48 49 51
33 33 33 33 32 32 33 33 33 34 35 36 34 35 36 35 35 35 35 35 35 35 36 36 37 39 40 40 41 42 43 44 44 44 45 46 47 47 48 49 49 49 50 51
32 33 33 32 32 32 31 32 33 34 35 36 35 36 36 36 35 35 35 35 35 36 37 38 38 38 39 40 40 41 42 43 43 44 44 46 47 48 48 49 50 50 51 52
33 32 32 32 31 31 31 31 32 34 35 36 36 37 36 36 35 35 35 36 36 36 36 37 38 38 39 39 40 40 41 42 43 44 45 45 46 47 48 50 51 51 51 52
34 33 33 32 32 32 31 31 32 34 35 36 36 36 36 36 36 36 36 36 36 36 35 36 37 38 39 39 40 41 41 42 43 44 45 45 45 46 47 50 51 52 52 52
34 34 33 33 33 33 32 32 32 34 36 37 37 36 36 36 36 37 37 37 37 37 37 36 37 37 38 39 40 41 41 42 43 44 45 45 45 46 47 49 51 51 52 51
34 35 34 33 33 32 33 33 34 35 36 37 38 38 37 37 37 37 37 37 37 37 38 38 38 38 39 40 41 42 42 43 44 45 45 46 46 46 47 48 49 50 51 50
33 35 35 34 34 33 34 34 35 36 37 38 39 39 38 38 38 37 38 38 38 37 38 38 39 39 39 40 41 42 42 42 43 44 46 46 47 48 48 49 50 50 50 50
34 35 36 35 35 34 34 34 35 36 38 38 39 39 38 38 38 38 38 38 38 38 39 39 39 40 40 41 41 42 42 43 44 45 45 46 47 49 49 50 50 49 49 51
35 36 36 36 36 36 36 35 36 37 38 39 39 38 37 38 37 37 38 38 39 39 40 40 40 40 41 41 42 42 43 43 43 44 45 46 46 48 48 48 48 49 49 50
36 36 36 37 37 37 37 36 36 37 37 38 38 38 38 38 38 38 38 38 38 39 40 40 41 41 42 42 42 42 42 43 43 44 45 46 46 46 46 46 47 48 49 50
36 37 37 36 37 37 37 37 38 37 37 37 38 37 37 37 38 37 37 37 38 39 40 40 40 41 42 42 41 41 41 41 42 43 44 46 45 45 45 46 47 48 48 50
36 37 37 37 37 38 38 37 37 38 37 37 37 36 36 36 36 37 37 37 38 38 38 39 39 39 40 41 41 41 41 41 42 43 44 44 44 44 44 45 46 47 48 49
35 36 37 37 37 38 38 37 37 37 36 36 36 36 35 36 37 37 37 37 38 38 38 39 39 39 39 40 40 40 41 42 42 43 43 43 44 44 44 46 46 46 47 48
35 35 36 36 38 39 37 36 36 36 36 35 35 35 36 37 37 37 37 37 37 38 38 38 38 39 38 38 39 39 40 41 41 41 42 42 42 42 43 44 44 44 45 46
36 35 35 36 37 37 36 36 36 36 36 35 35 36 37 37 38 37 37 36 37 37 37 37 37 37 37 37 38 38 39 39 40 40 40 41 41 42 42 43 44 44 44 45
35 35 35 36 37 37 35 35 35 36 36 36 36 37 37 37 37 37 37 36 36 35 35 35 36 36 37 37 38 38 39 38 39 39 39 39 40 40 42 43 43 44 44 44
35 35 35 35 36 35 33 34 34 35 36 36 36 36 36 36 37 37 37 36 36 35 35 35 36 36 37 38 38 38 38 38 38 38 39 39 39 40 41 42 43 43 43 43
35 35 35 35 35 34 33 33 34 34 34 34 35 35 36 36 36 37 37 36 36 35 36 36 36 37 37 38 38 38 37 37 37 38 38 39 39 40 40 41 42 43 44 44
34 35 35 35 33 34 33 33 33 33 34 34 33 34 34 35 35 35 35 35 35 36 36 36 37 37 37 38 38 37 37 37 37 37 38 38 39 39 40 41 41 42 42 43
33 33 34 34 33 33 33 34 35 34 34 33 32 33 34 34 34 34 35 35 35 35 36 36 36 36 36 36 36 36 36 37 37 38 38 38 38 39 39 39 40 41 42 42
30 32 32 32 32 33 33 34 35 34 33 33 33 33 33 33 34 34 35 35 35 35 35 36 35 35 35 35 34 35 35 36 37 37 37 37 37 37 38 38 38 39 40 40
Wind_Direction
282 282 283 284 284 285 284 284 283 281 281 281 281 281 281 279 278 279 280 279 276 272 268 266 264 263 261 261 260 259 257 257 258 259 259 259 259 259 258 257 256 256 256 258
283 284 284 284 284 284 283 283 283 282 281 281 281 282 281 279 279 280 280 281 278 273 269 267 265 263 262 261 261 259 259 258 259 259 259 259 259 259 258 257 257 257 257 258
285 287 286 285 285 284 282 282 282 282 282 282 282 281 281 281 281 281 282 282 280 275 271 269 266 263 262 263 263 261 260 260 260 260 260 258 258 260 258 257 257 257 258 258
285 287 287 287 287 285 283 283 282 281 281 282 283 283 281 282 282 282 282 282 280 277 274 272 267 264 264 264 264 262 262 262 262 261 260 260 259 260 259 258 258 258 259 259
286 287 288 288 288 287 286 284 282 281 281 282 282 284 283 283 284 283 282 282 280 277 276 274 269 266 266 266 265 264 263 263 262 262 262 262 261 260 259 258 260 260 260 260
287 287 287 288 287 287 287 285 283 283 283 282 283 284 285 286 286 285 283 282 281 278 277 276 273 270 269 268 267 266 265 264 263 263 263 262 262 261 259 259 261 260 261 260
287 287 287 286 285 285 285 286 286 286 285 284 285 285 287 288 288 287 285 283 281 280 278 277 276 273 271 269 268 267 265 264 263 263 263 263 263 262 260 261 261 262 263 262
288 288 287 286 285 286 285 286 287 289 289 289 288 287 288 288 289 288 287 284 282 280 279 278 277 275 273 272 270 268 267 265 264 264 264 264 264 263 262 262 262 263 263 264
289 288 287 285 285 285 285 285 286 287 288 289 290 290 289 288 288 288 287 286 283 281 280 279 277 276 274 273 272 271 269 266 265 265 266 266 266 266 264 264 264 263 263 263
290 289 286 286 285 284 284 285 286 287 289 290 291 291 291 291 291 289 288 286 283 281 280 279 278 278 276 275 273 272 271 268 268 267 268 268 267 268 266 266 266 264 263 263
289 289 288 286 285 285 284 284 285 286 287 289 291 291 292 292 291 290 288 286 284 283 281 279 279 278 278 277 275 273 273 271 269 269 269 269 269 269 268 268 267 266 264 263
289 288 288 287 286 286 286 285 286 286 287 287 289 290 292 291 291 289 288 286 285 284 282 281 279 279 278 278 278 276 274 273 272 271 270 271 271 270 269 268 267 266 264 262
288 288 289 288 287 286 286 286 286 285 286 287 288 290 292 291 291 291 289 287 286 285 284 283 281 278 278 279 279 278 275 275 273 273 273 273 273 272 270 269 268 266 264 263
287 287 288 288 288 287 287 287 286 286 286 287 287 289 290 290 289 289 288 287 286 286 287 285 283 280 280 280 280 279 276 275 273 274 275 275 274 273 271 269 267 266 265 264
288 287 287 287 286 286 286 285 285 285 286 287 288 288 289 289 289 288 288 288 287 287 287 287 285 283 281 280 279 278 277 275 274 274 275 276 275 273 271 268 266 265 265 265
289 288 288 286 286 286 286 285 285 286 286 286 287 287 288 288 288 289 289 288 288 288 288 288 286 285 283 281 279 278 276 276 276 276 276 276 274 273 272 270 268 266 267 267
290 290 289 287 287 287 286 287 287 287 286 286 285 286 286 288 289 289 289 289 289 289 288 288 288 287 285 283 280 278 277 276 277 278 276 275 274 273 273 272 269 268 268 268
289 290 289 289 288 287 289 288 287 287 287 287 285 285 285 287 289 290 290 290 290 290 289 289 288 287 286 285 283 281 280 279 278 278 276 275 274 273 272 272 271 270 269 269
287 289 289 289 289 288 288 289 289 288 287 287 286 285 286 287 288 288 289 290 291 292 291 290 289 288 287 286 285 284 283 281 279 278 277 276 275 273 272 273 272 270 270 270
287 287 287 289 290 291 292 290 290 289 288 287 287 286 286 287 288 289 289 291 291 292 292 291 290 289 288 288 287 286 285 283 282 280 278 278 276 275 273 273 272 272 271 271
288 287 287 288 290 291 293 292 291 290 290 289 289 288 287 287 288 289 290 291 292 292 292 292 292 291 290 289 288 287 286 285 284 282 281 280 279 277 275 274 273 272 272 272
289 288 288 289 290 292 292 291 291 291 290 289 289 290 289 289 288 289 290 291 292 292 292 293 294 294 293 291 290 288 287 286 284 283 282 281 280 278 277 275 275 274 273 272
288 289 289 290 291 291 290 289 290 290 290 290 290 290 290 289 289 290 291 291 291 292 293 294 295 295 295 293 292 290 287 286 285 285 284 284 282 280 279 277 276 275 274 274
289 289 289 289 290 290 288 287 287 288 290 290 291 291 291 290 291 292 292 292 292 293 294 294 295 296 295 294 293 291 288 287 287 287 287 286 285 283 282 280 279 277 276 275
289 289 289 289 289 287 285 284 285 287 290 290 290 291 292 292 292 293 293 293 293 293 294 295 296 297 297 297 296 294 292 290 289 288 287 286 285 284 283 281 280 278 277 277
289 289 289 289 289 289 288 286 287 289 291 290 291 292 292 293 294 294 295 295 295 295 295 296 297 298 299 299 298 296 295 294 292 290 288 287 286 285 283 282 281 280 279 278
Height
5724 5724 5722 5720 5718 5716 5714 5712 5710 5709 5707 5705 5704 5702 5701 5700 5698 5696 5694 5693 5692 5691 5691 5691 5692 5693 5695 5697 5698 5699 5701 5703 5704 5706 5707 5709 5711 5712 5714 5716 5719 5722 5724 5727
5717 5715 5714 5711 5709 5707 5705 5703 5702 5700 5698 5696 5695 5693 5693 5691 5689 5687 5686 5684 5682 5681 5681 5682 5682 5683 5685 5686 5687 5689 5690 5691 5693 5694 5695 5697 5699 5700 5702 5704 5707 5709 5712 5714
5709 5709 5705 5703 5701 5699 5697 5695 5693 5692 5690 5688 5686 5685 5685 5683 5681 5679 5677 5676 5674 5672 5672 5672 5672 5673 5675 5676 5677 5678 5679 5680 5681 5682 5684 5685 5687 5688 5690 5692 5695 5697 5699 5701
5701 5700 5697 5695 5692 5690 5689 5687 5685 5682 5681 5679 5678 5675 5676 5674 5673 5671 5669 5667 5666 5664 5663 5663 5663 5664 5665 5666 5666 5667 5668 5669 5670 5671 5672 5673 5675 5676 5678 5680 5682 5684 5686 5688
5693 5691 5689 5687 5685 5682 5680 5678 5676 5674 5672 5670 5669 5666 5667 5665 5664 5663 5661 5659 5657 5656 5655 5654 5654 5654 5655 5655 5655 5656 5657 5657 5658 5659 5660 5660 5662 5664 5665 5667 5669 5670 5672 5674
5685 5683 5680 5679 5676 5674 5671 5670 5668 5665 5663 5661 5662 5659 5657 5656 5656 5654 5652 5650 5648 5647 5646 5645 5644 5644 5644 5644 5644 5645 5645 5646 5646 5647 5647 5648 5650 5651 5653 5654 5655 5657 5658 5660
5676 5674 5672 5670 5668 5666 5664 5662 5660 5656 5654 5653 5653 5650 5649 5648 5646 5645 5643 5641 5639 5638 5636 5635 5635 5634 5634 5634 5634 5634 5634 5634 5634 5635 5635 5636 5637 5638 5640 5640 5642 5643 5644 5645
5667 5665 5663 5661 5660 5658 5656 5654 5652 5649 5646 5645 5644 5641 5642 5640 5637 5635 5633 5631 5630 5629 5628 5626 5625 5624 5624 5623 5623 5622 5622 5622 5623 5623 5623 5623 5624 5625 5626 5627 5628 5629 5630 5630
5657 5656 5655 5653 5651 5650 5648 5646 5644 5641 5638 5636 5635 5634 5633 5631 5629 5626 5624 5622 5621 5620 5618 5617 5616 5614 5613 5612 5611 5611 5611 5611 5611 5611 5611 5611 5611 5611 5612 5613 5613 5614 5615 5616
5648 5647 5646 5644 5643 5641 5640 5638 5636 5632 5629 5626 5626 5625 5623 5621 5619 5617 5615 5613 5611 5610 5608 5607 5605 5604 5603 5602 5600 5600 5599 5599 5599 5599 5599 5599 5599 5599 5599 5599 5599 5600 5600 5601
5640 5638 5637 5636 5634 5633 5632 5630 5627 5624 5621 5619 5616 5618 5615 5612 5610 5607 5605 5603 5601 5600 5598 5597 5595 5594 5592 5591 5590 5589 5588 5588 5587 5587 5587 5586 5586 5586 5586 5586 5585 5585 5586 5587
5632 5629 5627 5627 5626 5623 5622 5621 5618 5616 5614 5610 5608 5610 5606 5604 5600 5598 5596 5593 5591 5590 5588 5586 5585 5583 5582 5580 5579 5577 5576 5576 5575 5574 5574 5573 5573 5572 5572 5572 5571 5571 5572 5573
5623 5620 5618 5617 5618 5616 5613 5612 5609 5607 5604 5601 5599 5601 5597 5594 5591 5588 5586 5583 5581 5579 5578 5576 5574 5573 5571 5569 5568 5566 5565 5563 5562 5562 5561 5560 5559 5558 5558 5557 5557 5557 5558 5559
5614 5612 5611 5609 5607 5605 5604 5603 5600 5597 5595 5593 5591 5590 5588 5584 5581 5579 5576 5573 5571 5569 5567 5565 5563 5561 5559 5558 5556 5554 5553 5551 5550 5549 5548 5547 5546 5544 5543 5543 5543 5543 5543 5544
5604 5603 5601 5599 5598 5596 5594 5593 5591 5588 5586 5584 5582 5579 5578 5575 5572 5569 5566 5564 5561 5559 5557 5554 5552 5550 5548 5546 5544 5542 5541 5539 5538 5536 5535 5533 5532 5530 5529 5528 5528 5528 5529 5529
5595 5593 5591 5590 5588 5586 5584 5583 5581 5579 5577 5574 5571 5570 5568 5565 5562 5559 5556 5554 5551 5549 5546 5544 5541 5538 5536 5534 5532 5530 5529 5527 5526 5524 5522 5520 5518 5517 5516 5515 5514 5514 5514 5515
5586 5583 5581 5580 5578 5575 5575 5575 5571 5569 5567 5564 5561 5561 5558 5555 5552 5550 5547 5544 5541 5538 5535 5532 5530 5527 5525 5522 5520 5519 5517 5516 5514 5512 5510 5507 5505 5504 5503 5502 5501 5501 5501 5501
5577 5574 5571 5569 5568 5565 5567 5564 5561 5559 5557 5555 5552 5550 5548 5545 5543 5540 5537 5534 5531 5528 5525 5522 5519 5516 5513 5511 5509 5507 5505 5503 5501 5499 5497 5495 5493 5492 5490 5490 5489 5488 5488 5488
5568 5565 5562 5559 5556 5554 5556 5554 5551 5548 5547 5545 5542 5540 5538 5535 5533 5531 5528 5524 5521 5517 5514 5511 5508 5505 5502 5500 5497 5495 5493 5491 5489 5487 5485 5483 5481 5479 5479 5477 5476 5476 5475 5475
5559 5556 5554 5550 5546 5544 5547 5544 5541 5539 5537 5536 5532 5530 5528 5525 5523 5522 5518 5515 5511 5508 5504 5501 5498 5495 5492 5489 5486 5484 5482 5479 5477 5475 5473 5471 5469 5468 5467 5465 5464 5463 5462 5462
5549 5547 5544 5541 5537 5536 5537 5534 5531 5529 5528 5525 5522 5520 5517 5515 5513 5511 5508 5505 5501 5498 5495 5491 5488 5485 5482 5479 5476 5473 5471 5468 5465 5463 5461 5459 5457 5455 5454 5453 5452 5451 5450 5449
5540 5537 5535 5532 5529 5531 5527 5524 5522 5519 5516 5513 5511 5509 5507 5504 5502 5500 5497 5494 5491 5488 5485 5482 5479 5475 5472 5468 5465 5463 5460 5457 5454 5452 5450 5448 5446 5444 5442 5441 5439 5438 5437 5436
5531 5529 5526 5524 5524 5521 5517 5515 5512 5509 5507 5504 5502 5499 5497 5495 5493 5490 5488 5485 5482 5479 5476 5472 5469 5465 5462 5458 5454 5452 5449 5446 5443 5441 5439 5436 5434 5432 5430 5428 5427 5425 5424 5423
5522 5520 5517 5515 5514 5512 5508 5505 5503 5500 5497 5495 5493 5490 5488 5486 5483 5481 5478 5475 5472 5469 5466 5463 5459 5455 5452 5448 5444 5440 5437 5435 5432 5430 5427 5425 5422 5420 5417 5416 5414 5413 5411 5410
5513 5510 5508 5506 5505 5502 5500 5496 5494 5491 5489 5486 5484 5481 5479 5477 5474 5471 5469 5466 5463 5459 5456 5453 5449 5445 5442 5438 5434 5430 5427 5424 5421 5419 5416 5413 5411 5408 5406 5403 5401 5400 5399 5396
5505 5502 5499 5497 5495 5492 5490 5487 5485 5483 5481 5478 5476 5473 5470 5468 5465 5462 5459 5456 5453 5449 5446 5443 5439 5435 5432 5428 5424 5420 5417 5413 5410 5407 5405 5402 5399 5396 5394 5392 5390 5387 5386 5384